Wind_Speed
34 35 36 37 36 36 36 37 37 35 34 34 34 35 36 36 36 37 37 36 35 35 37 38 38 37 38 37 38 38 38 38 38 38 38 37 36 36
34 35 36 37 37 36 37 37 37 35 34 34 34 35 35 35 35 35 35 35 35 34 35 35 37 37 36 36 36 36 36 37 37 37 37 37 36 35
35 35 36 36 35 36 36 35 35 35 35 34 34 35 34 35 35 34 34 34 33 33 33 34 35 34 34 33 34 35 35 36 36 35 35 35 35 36
35 34 35 35 34 34 34 34 34 34 34 33 34 33 33 34 33 33 33 33 33 32 31 32 33 32 31 31 32 33 33 33 34 34 34 35 35 35
34 34 34 34 33 33 33 33 33 34 33 33 33 33 32 32 31 31 31 31 31 31 31 32 32 31 31 31 30 32 33 33 33 33 33 34 34 34
34 33 33 34 33 33 32 32 32 32 32 32 32 32 32 32 30 30 29 29 29 30 30 31 31 31 31 31 31 32 32 33 33 33 33 33 33 33
34 33 32 32 32 31 31 31 32 31 31 32 32 31 31 31 30 30 29 28 28 29 29 29 30 30 30 31 31 31 31 32 33 33 33 33 32 32
33 32 31 30 30 31 31 31 31 32 32 32 31 31 30 30 30 30 29 29 30 29 29 29 30 30 30 30 30 30 30 31 31 31 31 31 30 30
32 31 31 30 29 30 30 31 31 32 32 31 31 31 30 29 29 29 28 29 30 29 29 28 29 29 29 29 29 29 29 29 29 29 29 29 29 28
30 30 30 30 30 29 30 30 30 31 31 32 31 31 30 29 28 28 28 28 29 29 29 29 29 29 29 29 28 27 27 27 27 27 27 27 27 26
29 29 29 29 28 28 29 29 29 29 31 32 31 31 31 29 28 28 29 29 29 28 28 28 28 28 28 28 27 27 26 26 25 25 25 25 26 25
26 26 27 28 27 27 28 28 28 28 28 29 30 30 30 29 28 27 28 28 28 27 27 27 27 27 27 26 27 27 25 25 25 25 24 24 24 23
24 24 25 26 27 28 28 28 27 27 28 28 28 29 29 28 26 26 27 27 27 26 26 25 25 25 26 26 26 27 26 25 25 24 23 23 23 22
25 25 25 26 26 26 27 27 27 27 27 27 27 26 26 26 24 25 25 25 25 25 25 24 24 24 24 25 25 25 25 25 24 24 24 23 22 22
25 25 25 26 26 26 26 26 26 25 25 26 26 24 23 23 23 23 23 22 22 23 24 24 24 23 24 25 24 24 23 24 24 23 23 23 22 21
24 25 25 26 26 26 25 25 24 24 24 24 24 23 23 22 21 21 21 21 22 22 23 23 23 23 23 23 23 23 23 23 23 22 21 21 20 20
24 24 24 25 25 25 24 23 23 23 23 23 22 22 21 21 20 20 20 20 20 20 21 22 22 22 22 22 22 22 22 21 21 20 19 18 18 18
21 21 22 22 22 22 21 22 22 22 22 21 20 20 20 20 20 19 19 19 20 20 20 20 20 20 21 21 21 21 20 19 19 17 17 17 16 16
20 20 20 20 20 20 21 21 21 21 20 20 20 19 19 19 19 19 18 18 19 19 19 18 18 18 19 19 19 19 18 17 16 15 15 15 15 15
19 19 19 19 19 19 19 19 19 19 19 19 19 19 18 17 17 17 18 18 18 18 18 17 17 17 17 16 16 15 15 14 13 13 13 13 14 14
18 18 19 19 19 19 19 19 19 19 19 18 18 18 17 17 17 18 18 17 17 17 17 17 16 16 15 15 14 13 12 12 12 12 12 12 12 12
18 18 18 19 19 19 19 19 19 18 17 17 17 18 18 18 18 17 17 17 17 17 17 17 16 16 16 15 14 13 12 11 11 11 11 11 11 10
18 18 19 20 19 19 19 19 18 18 18 18 18 18 18 18 18 18 18 18 18 17 17 17 16 16 16 15 14 13 12 12 12 11 11 11 10 10
Wind_Direction
266 265 267 268 267 268 269 271 272 272 271 270 268 269 272 274 276 276 274 271 270 270 270 269 272 273 274 275 275 276 278 279 279 279 278 279 281 281
266 266 267 268 267 269 270 271 271 271 271 271 269 269 271 274 274 275 274 273 272 271 270 272 273 273 275 276 275 276 279 280 280 280 279 279 280 281
268 268 268 268 268 269 269 270 270 272 273 270 268 269 270 272 273 275 276 274 272 271 271 272 272 274 276 276 276 277 280 282 282 281 281 281 281 281
269 269 269 267 267 267 268 267 270 272 271 267 266 268 271 272 275 276 276 274 272 270 272 271 272 272 275 276 277 280 283 284 284 283 283 282 282 282
269 269 267 267 265 265 266 267 268 269 269 268 267 268 271 274 274 276 277 274 272 271 272 272 271 271 273 275 278 280 283 285 285 285 285 284 283 282
269 270 267 266 264 263 265 266 267 268 268 268 268 269 271 273 274 275 276 275 273 272 271 269 268 269 272 275 278 281 283 284 284 285 285 285 284 283
268 268 267 266 263 262 265 266 266 267 268 268 269 271 272 273 274 276 276 274 272 271 270 268 267 268 271 274 278 281 282 283 284 285 285 284 284 285
267 266 266 265 262 263 266 266 266 266 267 269 270 271 274 274 274 276 276 273 271 271 270 268 268 269 271 274 277 280 281 284 286 286 284 283 284 287
265 265 265 264 264 264 265 267 268 266 267 268 269 271 273 274 274 274 272 271 272 270 269 268 270 271 274 277 279 280 280 282 284 285 283 285 287 288
265 264 263 264 265 266 267 267 267 266 265 265 266 268 270 272 272 272 270 273 273 271 270 269 271 274 275 277 279 280 280 280 284 286 287 289 289 289
265 264 263 264 264 266 267 268 268 267 265 264 265 267 268 270 269 270 272 272 272 270 271 270 271 274 276 277 277 277 278 280 282 284 287 290 289 287
264 263 261 261 260 262 265 267 268 267 266 266 267 268 269 270 270 269 270 271 269 268 270 272 273 274 276 276 275 275 278 281 281 282 285 288 287 284
265 264 261 260 260 262 264 266 269 270 269 268 269 269 269 270 269 268 271 272 271 271 272 273 273 274 276 276 275 275 277 278 280 281 283 285 286 285
265 264 262 259 261 261 264 266 269 270 270 269 270 271 270 270 268 267 270 272 273 273 273 275 274 276 277 278 278 279 278 277 279 280 281 282 284 285
264 263 262 259 260 262 264 265 267 269 270 270 269 271 272 273 268 266 268 271 274 273 273 275 274 275 277 279 280 280 279 279 280 280 280 279 281 284
265 263 262 260 260 262 263 264 265 267 270 271 271 272 273 272 269 267 269 271 273 272 273 275 275 275 276 278 279 280 280 280 280 281 281 279 280 283
266 264 264 261 260 261 262 262 264 266 269 269 269 271 270 270 269 269 270 272 272 273 274 275 275 275 277 279 280 282 281 280 280 279 280 280 280 281
265 264 262 260 259 258 259 261 264 266 266 265 267 268 268 269 270 271 271 273 274 274 276 275 275 275 276 277 278 280 280 281 281 281 281 280 280 279
264 261 259 257 256 257 258 261 262 263 263 264 265 265 265 269 273 272 272 274 276 277 279 279 279 278 277 276 277 278 281 282 281 282 282 278 278 279
265 259 255 255 256 258 259 260 261 263 264 264 263 262 264 269 273 274 273 275 276 278 279 280 280 280 278 276 276 276 278 281 281 278 278 280 278 279
263 259 255 254 254 254 256 258 261 263 263 262 262 263 266 270 272 273 274 275 277 280 281 280 280 279 276 274 274 275 278 279 279 279 279 280 279 276
261 258 255 255 256 256 256 259 261 261 261 262 264 265 267 269 270 270 271 275 278 280 282 280 277 274 270 270 271 271 272 274 277 280 282 282 277 273
261 258 257 256 257 257 257 258 260 260 262 264 265 267 268 269 269 270 271 273 275 277 278 277 275 271 267 267 267 266 265 269 271 274 276 279 277 276
Height
5637 5637 5637 5637 5637 5637 5637 5637 5638 5638 5638 5638 5638 5638 5638 5637 5636 5635 5634 5633 5632 5633 5634 5634 5634 5634 5634 5633 5632 5631 5629 5628 5626 5625 5623 5622 5619 5617
5628 5628 5628 5627 5627 5627 5627 5627 5627 5628 5629 5629 5629 5629 5628 5628 5627 5626 5625 5624 5624 5624 5625 5624 5624 5624 5623 5622 5621 5620 5619 5618 5616 5614 5613 5611 5609 5607
5618 5618 5618 5618 5617 5617 5617 5617 5618 5619 5619 5620 5620 5620 5619 5619 5618 5617 5616 5615 5615 5615 5615 5615 5615 5614 5613 5612 5612 5611 5609 5608 5606 5604 5602 5601 5599 5597
5608 5608 5608 5608 5608 5608 5608 5608 5609 5610 5611 5611 5611 5611 5611 5610 5610 5609 5608 5607 5607 5606 5606 5605 5605 5604 5604 5603 5602 5602 5600 5599 5597 5595 5593 5591 5589 5587
5599 5599 5599 5599 5599 5599 5599 5600 5600 5601 5601 5602 5602 5603 5603 5602 5602 5601 5599 5598 5598 5597 5597 5596 5596 5595 5595 5595 5594 5593 5591 5590 5588 5586 5584 5581 5579 5577
5589 5589 5589 5589 5590 5590 5591 5591 5592 5592 5593 5593 5594 5594 5594 5594 5593 5593 5592 5591 5590 5589 5588 5588 5587 5587 5587 5586 5585 5584 5582 5580 5579 5576 5574 5572 5570 5568
5579 5579 5580 5580 5581 5582 5582 5583 5583 5584 5584 5585 5585 5586 5585 5585 5585 5584 5583 5583 5582 5581 5580 5580 5580 5579 5578 5577 5576 5575 5573 5571 5569 5567 5565 5563 5561 5559
5570 5571 5571 5571 5572 5573 5574 5574 5575 5576 5576 5576 5577 5577 5577 5576 5576 5576 5575 5575 5575 5574 5573 5572 5572 5571 5570 5569 5567 5566 5565 5562 5560 5558 5556 5554 5552 5550
5561 5562 5562 5563 5563 5564 5565 5566 5566 5566 5567 5568 5568 5568 5568 5568 5568 5567 5566 5566 5566 5565 5565 5565 5564 5563 5562 5560 5559 5558 5556 5554 5552 5550 5548 5546 5544 5542
5551 5552 5553 5554 5555 5556 5557 5557 5557 5558 5558 5559 5559 5559 5559 5558 5558 5558 5558 5558 5557 5556 5556 5557 5557 5556 5555 5552 5550 5549 5547 5546 5544 5542 5540 5538 5536 5534
5543 5544 5545 5546 5547 5547 5548 5549 5549 5549 5549 5550 5550 5550 5550 5550 5550 5550 5549 5550 5549 5549 5548 5548 5548 5548 5547 5544 5542 5541 5539 5538 5536 5534 5532 5530 5529 5527
5534 5535 5536 5537 5538 5539 5540 5541 5541 5542 5542 5541 5541 5541 5541 5542 5541 5541 5541 5541 5540 5540 5540 5540 5540 5539 5539 5537 5535 5534 5532 5530 5529 5527 5525 5523 5522 5520
5526 5527 5528 5529 5530 5531 5532 5533 5534 5534 5534 5534 5534 5533 5533 5533 5533 5533 5533 5533 5532 5532 5532 5532 5532 5531 5530 5529 5528 5526 5525 5523 5521 5519 5518 5516 5515 5513
5519 5519 5520 5521 5523 5524 5525 5526 5526 5526 5526 5526 5526 5526 5526 5526 5526 5526 5526 5525 5525 5524 5524 5524 5524 5523 5522 5522 5521 5520 5518 5516 5514 5513 5511 5509 5508 5507
5511 5512 5513 5514 5515 5516 5517 5518 5518 5519 5519 5519 5519 5519 5519 5518 5518 5519 5519 5519 5518 5518 5517 5517 5517 5516 5515 5514 5514 5513 5512 5510 5508 5506 5505 5503 5502 5500
5504 5505 5505 5506 5507 5508 5509 5510 5511 5512 5512 5512 5512 5512 5512 5512 5512 5512 5512 5512 5512 5512 5511 5511 5510 5510 5509 5507 5506 5506 5504 5503 5502 5500 5499 5497 5496 5495
5497 5497 5498 5498 5499 5500 5501 5503 5504 5505 5505 5505 5505 5505 5505 5505 5506 5506 5506 5506 5506 5506 5506 5505 5505 5503 5502 5501 5500 5499 5498 5496 5495 5494 5493 5493 5491 5490
5490 5490 5491 5491 5492 5493 5495 5496 5497 5498 5498 5498 5499 5499 5499 5499 5500 5500 5500 5500 5500 5500 5499 5499 5499 5498 5497 5495 5494 5493 5492 5491 5490 5489 5488 5488 5487 5486
5483 5483 5484 5485 5486 5487 5489 5490 5491 5491 5492 5492 5493 5493 5494 5494 5494 5494 5495 5495 5494 5494 5493 5493 5492 5491 5491 5490 5489 5487 5487 5486 5486 5485 5484 5484 5483 5482
5477 5478 5478 5479 5481 5482 5483 5484 5484 5485 5486 5486 5487 5488 5488 5489 5489 5489 5489 5489 5489 5488 5488 5487 5486 5486 5485 5485 5484 5483 5482 5482 5482 5482 5481 5480 5479 5478
5471 5472 5473 5474 5475 5476 5477 5478 5479 5480 5480 5481 5482 5482 5483 5484 5484 5484 5484 5484 5484 5483 5482 5481 5481 5480 5480 5480 5480 5479 5478 5478 5478 5478 5477 5477 5476 5475
5466 5467 5467 5468 5469 5471 5472 5473 5474 5474 5475 5476 5476 5477 5478 5478 5479 5479 5479 5479 5478 5478 5477 5476 5476 5475 5475 5475 5475 5475 5475 5475 5474 5473 5473 5473 5472 5471
5461 5461 5462 5463 5464 5465 5466 5467 5468 5469 5470 5470 5471 5472 5472 5472 5473 5473 5473 5473 5473 5472 5472 5471 5471 5470 5470 5470 5470 5471 5471 5471 5471 5470 5469 5469 5468 5468